Fargo, ND

4:22 AM CDT on May 28, 2017 (GMT -0500)
Hector International

Weather History for KFAR - December, 2013

Change the Weather History Date:

Monday, December 2, 2013

  Actual Average Record
Temperature  
Mean Temperature 30 °F 19 °F  
Max Temperature 31 °F 27 °F 55 °F (1982)
Min Temperature 28 °F 11 °F -30 °F (1886)
Degree Days  
Heating Degree Days 35 46  
Month to date heating degree days 75 91  
Since 1 July heating degree days 1916 2053  
Cooling Degree Days 0 0  
Month to date cooling degree days 0 0  
Year to date cooling degree days 699 551  
Moisture  
Dew Point 26 °F    
Average Humidity 85    
Maximum Humidity 92    
Minimum Humidity 78    
Precipitation  
Precipitation 0.26 in 0.03 in 0.34 in (1901)
Month to date precipitation 0.28 0.06  
Year to date precipitation 31.17 21.84  
Snow  
Snow 2.70 in 0.40 in 3.40 in (1901)
Month to date snowfall 2.9 0.7  
Since 1 July snowfall 3.2 9.3  
Snow Depth T in    
Sea Level Pressure  
Sea Level Pressure 29.65 in    
Wind  
Wind Speed 11 mph (NE)    
Max Wind Speed 18 mph    
Max Gust Speed 23 mph    
Visibility 2 miles    
Events Fog , Snow    
T = Trace of Precipitation, MM = Missing Value Source: NWS Daily Summary

Daily Weather History Graph

Daily Weather History Graph

Search for Another Location

Airport or City:

Trip Planner

Search our weather history database for the weather conditions in past years. The results will help you decide how hot, cold, wet, or windy it might be!

Date:

Astronomy

Dec. 02, 2013 Rise Set
Actual Time 7:53 AM CST 4:39 PM CST
Civil Twilight 7:18 AM CST 5:14 PM CST
Nautical Twilight 6:40 AM CST 5:52 PM CST
Astronomical Twilight 6:03 AM CST 6:29 PM CST
Moon 7:17 AM CST (12/2) 4:46 PM CST (12/2)
Length of Visible Light 9h 55m
Length of Day
8h 46m
Waning Crescent, 0% of the Moon is Illuminated
Dec 2
Waning Crescent
Dec 2
New
Dec 9
First Quarter
Dec 17
Full
Dec 25
Last Quarter

Hourly Weather History & Observations

Time (CST) Temp. Windchill Dew Point Humidity Pressure Visibility Wind Dir Wind Speed Gust Speed Precip Events Conditions
12:53 AM 28.0 °F 20.8 °F 24.1 °F 85% 29.83 in 5.0 mi ESE 6.9 mph - N/A   Scattered Clouds
1:53 AM 28.0 °F 20.8 °F 24.1 °F 85% 29.80 in 5.0 mi East 6.9 mph - N/A   Mostly Cloudy
2:53 AM 28.9 °F 20.4 °F 24.1 °F 82% 29.78 in 5.0 mi ESE 9.2 mph - N/A   Haze
3:53 AM 30.0 °F 20.0 °F 24.1 °F 79% 29.75 in 5.0 mi ESE 12.7 mph - N/A   Haze
4:53 AM 30.0 °F 20.5 °F 25.0 °F 82% 29.73 in 5.0 mi SE 11.5 mph - N/A   Haze
5:53 AM 30.0 °F 20.5 °F 25.0 °F 82% 29.71 in 3.0 mi ESE 11.5 mph - N/A   Haze
6:13 AM 30.2 °F 21.9 °F 26.6 °F 86% 29.66 in 2.5 mi SE 9.2 mph - 0.00 in Snow Light Snow
6:24 AM 30.2 °F 21.3 °F 26.6 °F 86% 29.66 in 1.8 mi ESE 10.4 mph - 0.00 in Snow Light Snow
6:49 AM 30.2 °F 22.6 °F 26.6 °F 86% 29.66 in 1.8 mi East 8.1 mph - 0.00 in Snow Light Snow
6:53 AM 30.0 °F 21.7 °F 26.1 °F 85% 29.70 in 1.8 mi East 9.2 mph - 0.00 in Snow Light Snow
7:53 AM 30.0 °F 21.7 °F 26.1 °F 85% 29.68 in 1.2 mi East 9.2 mph - 0.01 in Snow Light Snow
8:16 AM 30.2 °F 21.9 °F 26.6 °F 86% 29.64 in 0.8 mi East 9.2 mph - 0.00 in Snow Light Snow
8:53 AM 30.0 °F 21.1 °F 26.1 °F 85% 29.68 in 0.5 mi East 10.4 mph - 0.02 in Fog , Snow Light Snow
9:34 AM 30.2 °F 23.4 °F 26.6 °F 86% 29.64 in 0.2 mi ENE 6.9 mph - 0.02 in Fog , Snow Snow
9:53 AM 30.0 °F 23.2 °F 27.0 °F 88% 29.67 in 0.2 mi ENE 6.9 mph - 0.04 in Fog , Snow Snow
10:48 AM 30.2 °F 21.3 °F 26.6 °F 86% 29.63 in 0.2 mi ENE 10.4 mph - 0.07 in Fog , Snow Snow
10:53 AM 30.0 °F 21.1 °F 27.0 °F 88% 29.67 in 0.2 mi ENE 10.4 mph - 0.07 in Fog , Snow Snow
11:08 AM 30.2 °F 20.8 °F 26.6 °F 86% 29.62 in 0.5 mi ENE 11.5 mph - 0.01 in Fog , Snow Snow
11:29 AM 30.2 °F 21.3 °F 26.6 °F 86% 29.62 in 0.5 mi ENE 10.4 mph - 0.01 in Fog , Snow Light Snow
11:53 AM 30.0 °F 20.0 °F 27.0 °F 88% 29.65 in 0.5 mi ENE 12.7 mph - 0.02 in Fog , Snow Light Snow
12:06 PM 30.2 °F 20.8 °F 26.6 °F 86% 29.60 in 0.2 mi ENE 11.5 mph - 0.00 in Fog , Snow Snow
12:23 PM 30.2 °F 21.9 °F 26.6 °F 86% 29.60 in 0.5 mi ENE 9.2 mph - 0.01 in Fog , Snow Light Snow
12:39 PM 30.2 °F 21.3 °F 26.6 °F 86% 29.60 in 0.8 mi ENE 10.4 mph - 0.02 in Snow Light Snow
12:53 PM 30.9 °F 23.5 °F 27.0 °F 85% 29.63 in 0.5 mi ENE 8.1 mph - 0.02 in Fog , Snow Snow
1:01 PM 30.2 °F 21.3 °F 26.6 °F 86% 29.59 in 0.2 mi ENE 10.4 mph - 0.01 in Fog , Snow Snow
1:08 PM 30.2 °F 20.8 °F 26.6 °F 86% 29.59 in 0.2 mi ENE 11.5 mph - 0.02 in Fog , Snow Snow
1:34 PM 30.2 °F 20.8 °F 26.6 °F 86% 29.58 in 0.2 mi NE 11.5 mph - 0.04 in Fog , Snow Snow
1:53 PM 30.9 °F 21.7 °F 28.0 °F 89% 29.62 in 0.2 mi NE 11.5 mph - 0.05 in Fog , Snow Light Snow
1:56 PM 30.2 °F 20.8 °F 28.4 °F 93% 29.58 in 0.5 mi NE 11.5 mph - 0.00 in Fog , Snow Light Snow
2:05 PM 30.2 °F 20.8 °F 28.4 °F 93% 29.58 in 0.8 mi NE 11.5 mph - 0.01 in Snow Light Snow
2:32 PM 30.2 °F 21.3 °F 26.6 °F 86% 29.57 in 1.0 mi NE 10.4 mph - 0.01 in Snow Light Snow
2:53 PM 30.9 °F 21.7 °F 27.0 °F 85% 29.61 in 1.5 mi NE 11.5 mph - 0.01 in Snow Light Snow
3:53 PM 30.9 °F 22.2 °F 28.0 °F 89% 29.62 in 1.0 mi NE 10.4 mph - 0.01 in Snow Light Snow
4:01 PM 30.2 °F 21.9 °F 28.4 °F 93% 29.59 in 0.8 mi NNE 9.2 mph - 0.00 in Snow Light Snow
4:19 PM 30.2 °F 21.9 °F 28.4 °F 93% 29.59 in 0.5 mi NNE 9.2 mph - 0.01 in Fog , Snow Light Snow
4:50 PM 30.2 °F 21.3 °F 26.6 °F 86% 29.60 in 1.2 mi NNE 10.4 mph - 0.01 in Snow Light Snow
4:53 PM 30.0 °F 20.5 °F 27.0 °F 88% 29.64 in 1.5 mi NE 11.5 mph - 0.01 in Snow Light Snow
5:25 PM 30.2 °F 20.2 °F 26.6 °F 86% 29.60 in 2.0 mi NNE 12.7 mph - 0.00 in Snow Light Snow
5:45 PM 30.2 °F 19.8 °F 26.6 °F 86% 29.61 in 3.0 mi NE 13.8 mph - 0.00 in   Overcast
5:53 PM 30.0 °F 19.5 °F 27.0 °F 88% 29.65 in 3.0 mi NE 13.8 mph - 0.00 in   Overcast
6:53 PM 30.0 °F 20.0 °F 27.0 °F 88% 29.66 in 4.0 mi NNE 12.7 mph - N/A   Overcast
7:00 PM 30.2 °F 19.8 °F 26.6 °F 86% 29.63 in 4.0 mi NNE 13.8 mph - N/A   Overcast
7:17 PM 30.2 °F 20.8 °F 26.6 °F 86% 29.63 in 3.0 mi NNE 11.5 mph - N/A   Overcast
7:53 PM 28.9 °F 18.2 °F 26.1 °F 89% 29.67 in 3.0 mi NNE 13.8 mph - 0.00 in Snow Light Snow
8:01 PM 28.4 °F 16.6 °F 26.6 °F 93% 29.63 in 1.8 mi NNE 16.1 mph - 0.00 in Snow Light Snow
8:09 PM 28.4 °F 17.0 °F 26.6 °F 93% 29.63 in 2.0 mi NNE 15.0 mph - 0.00 in Snow Light Snow
8:22 PM 28.4 °F 16.6 °F 26.6 °F 93% 29.63 in 1.5 mi NNE 16.1 mph - 0.01 in Snow Light Snow
8:53 PM 28.9 °F 18.2 °F 25.0 °F 85% 29.68 in 1.5 mi NNE 13.8 mph - 0.01 in Snow Light Snow
9:07 PM 28.4 °F 17.5 °F 24.8 °F 86% 29.66 in 2.5 mi NNE 13.8 mph - 0.01 in Snow Light Snow
9:16 PM 28.4 °F 18.0 °F 24.8 °F 86% 29.66 in 4.0 mi NNE 12.7 mph - 0.01 in Snow Light Snow
9:30 PM 28.4 °F 17.5 °F 24.8 °F 86% 29.66 in 4.0 mi NNE 13.8 mph - 0.01 in Snow Light Snow
9:53 PM 28.0 °F 16.1 °F 25.0 °F 88% 29.70 in 4.0 mi NNE 16.1 mph - 0.01 in Snow Light Snow
10:53 PM 28.0 °F 16.5 °F 24.1 °F 85% 29.70 in 7.0 mi NNE 15.0 mph - 0.00 in   Overcast
11:53 PM 28.0 °F 17.0 °F 23.0 °F 81% 29.73 in 10.0 mi North 13.8 mph - N/A   Overcast